Location: Cutler
(25.6150°N, 80.3110°W)
Time: 03:49:07
(UTC-04:00)

Vanguard 1 - Pass Details

Date: 31 January 2018
Orbit: 650 x 3833 km, 34.3° (Epoch: 27 May)

Event Time Altitude Azimuth Distance (km) Brightness Sun altitude
Rises 01:27:00 0° 295° (WNW) 3,684 - -75.3°
Reaches altitude 10° 01:29:06 10° 297° (WNW) 2,963 - -74.9°
Maximum altitude 01:36:28 76° 23° (NNE) 1,656 - -73.5°
Exits shadow 01:48:00 16° 108° (ESE) 4,620 13.5 -71.1°
Drops below altitude 10° 01:50:39 10° 109° (ESE) 5,405 13.9 -70.5°
Sets 01:55:58 0° 111° (ESE) 6,899 14.6 -69.4°
